STARLINK-36453, 67341

Orbit data source: Space-Track

STARLINK-36453, 67341 is a payload satellite owned by SpaceX/Seattle (US) in LEO that was launched on Fri, 09 Jan 2026 UTC via an FALCON 9 launch vehicle from the Air Force Eastern Test Range (AFETR). Payload-class satellites include a variety of spacecraft equipped with specific instruments for various scientific and technological missions. These include communications satellites like Starlink; space stations such as the ISS; scientific satellites like the Hubble; Earth observation satellites from companies like Planet Labs, Umbra, and HawkEye 360; GPS; miniature CubeSats for education and research; and military/defense satellites.

Loading next visibility...
Identifier
67341, 2026-003H
Orbit
LEO
Country
Flag of USUS
Related business
Manufacturer
SpaceX/Seattle
Mission
Operational Commercial Communications
Bus & Motor
STARLINK V2MO, Unknown motor
Mass
575 kg wet, ~530 kg dry
Launch date (UTC)
2026-01-09 (5 months ago)
Launch vehicle
FALCON 9
Launch site
Air Force Eastern Test Range (AFETR)
Object type
Payload
Rocket body
Debris
Shape & HBR
Box + 2 Pan, 17.7 m
Radar Cross Section
36.964 m², Large (>1 m²)

Expand to show TLE details & history
Last TLE update: 14 hours ago

TLE from 14 hours ago
0 STARLINK-36453
1 67341U 26003H   26171.27516087  .00016155  00000-0  59480-3 0  9992
2 67341  43.0053   7.6683 0002712 277.0353  83.0190 15.27606705 24519
Epoch: 2026-06-20T06:36Z
TLE epoch observation values (Epoch: 2026-06-20T06:36:13.899Z)
Latitude
-0.00002°
Longitude
0.11824°
Altitude
482.52 km
Speed
7.626 km/s
True Right ascension
00h 30m 40s
True Declination
0° 00' 00"
Sunlit
Object was in daylight at epoch
Visualization orbit readout
Latitude
Unknown
Longitude
Unknown
Altitude
Unknown
Speed
Unknown
Apparent Right ascension
Unknown
Apparent Declination
Unknown
Sunlit
N/A
Visualization observer readout
Local Sidereal Time
07:19:10
Azimuth
Unknown
Elevation
Unknown
Doppler factor
Unknown
Orbital elements
Apogee altitude
486.775 km
Perigee altitude
483.052 km
Semi-major axis
6,863.05 km
Eccentricity
0.00027
Inclination
43.0053°
RAAN
7.6683°
Arg. of periapsis
277.0353°
True anomaly
83.04985°
Mean anomaly
83.019°
Eccentric anomaly
83.03442°
Mean motion
3.8174 °/min
Orbital period
94.31 mins
BSTAR
0.0005948
Loading maneuver chart data...
Computing Atmospheric mass density...
Loading historical data...
Loading historical data...
Loading historical data...
Loading historical data...
Loading historical data...
Loading historical data...
Loading historical data...

Documentation

Showing up to 5 results
|